EW1556 Weather Reports


Display with metric or nautical units.
time (UTC)temp
F
wind
direction
speed
MPH
gust
MPH
rain 1hr
in
rain 24hr
in
rain mn
in
humidity
%
barometer
mb
20260509000030 69 279 13.0 24.0 0.00 0.09 0.09 35 1016.3
20260508234526 69 296 16.0 29.0 0.00 0.09 0.09 35 1016.4
20260508233022 70 285 17.0 26.0 0.00 0.09 0.09 33 1016.4
20260508231517 70 305 17.0 29.0 0.00 0.09 0.09 33 1016.3
20260508230012 70 307 16.0 24.0 0.00 0.09 0.09 33 1016.3
20260508224508 71 309 13.0 21.0 0.00 0.09 0.09 32 1016.2
20260508223004 71 305 10.0 19.0 0.00 0.09 0.09 32 1016.2
20260508221600 71 295 12.0 19.0 0.00 0.09 0.09 30 1016.3
20260508220056 71 294 11.0 17.0 0.00 0.09 0.09 30 1016.3
20260508214551 72 287 9.0 17.0 0.00 0.09 0.09 27 1016.3
20260508213045 72 290 13.0 20.0 0.00 0.09 0.09 28 1016.2
20260508211545 71 299 8.0 17.0 0.00 0.09 0.09 26 1016.1
20260508210140 71 293 9.0 17.0 0.00 0.09 0.09 25 1016.2
20260508204534 70 307 8.0 15.0 0.00 0.09 0.09 25 1016.0
20260508203028 70 303 7.0 19.0 0.00 0.09 0.09 26 1016.0
20260508201527 70 304 11.0 16.0 0.00 0.09 0.09 24 1015.9
20260508200024 69 313 11.0 19.0 0.00 0.09 0.09 24 1016.1
20260508194513 70 276 12.0 21.0 0.00 0.09 0.09 23 1016.1
20260508193009 68 326 9.0 21.0 0.00 0.09 0.09 24 1016.1
20260508191504 66 302 8.0 16.0 0.00 0.09 0.09 31 1016.3
20260508190100 64 321 11.0 18.0 0.00 0.09 0.09 28 1016.4
20260508184556 65 285 12.0 20.0 0.00 0.09 0.09 27 1016.3
20260508183051 64 281 12.0 23.0 0.00 0.09 0.09 31 1016.3
20260508181546 60 266 7.0 12.0 0.00 0.09 0.09 39 1016.4
20260508180042 59 279 10.0 15.0 0.00 0.09 0.09 40 1016.6
20260508174538 60 297 8.0 14.0 0.00 0.09 0.09 41 1016.3
20260508173032 60 293 7.0 15.0 0.00 0.09 0.09 40 1015.8
20260508171529 61 290 8.0 17.0 0.00 0.09 0.09 38 1016.1
20260508170023 62 291 10.0 14.0 0.00 0.09 0.09 35 1015.9
20260508164518 62 293 11.0 16.0 0.00 0.09 0.09 32 1016.0
20260508163027 62 295 12.0 21.0 0.00 0.09 0.09 31 1016.0
20260508161510 63 289 14.0 22.0 0.00 0.09 0.09 33 1016.1
20260508160011 62 304 12.0 20.0 0.00 0.09 0.09 38 1016.0
20260508154614 62 277 12.0 19.0 0.00 0.09 0.09 42 1015.9
20260508153057 62 290 12.0 19.0 0.00 0.09 0.09 44 1015.6
20260508151553 61 290 10.0 17.0 0.00 0.09 0.09 49 1015.6
20260508150058 60 290 9.0 15.0 0.00 0.09 0.09 52 1015.5
20260508144542 58 300 8.0 16.0 0.00 0.09 0.09 54 1015.4
20260508143052 58 292 9.0 15.0 0.00 0.09 0.09 53 1015.3
20260508141533 58 287 10.0 16.0 0.00 0.09 0.09 55 1015.2
20260508140030 58 289 8.0 14.0 0.00 0.09 0.09 57 1015.1
20260508134524 57 283 8.0 12.0 0.00 0.09 0.09 59 1015.1
20260508133020 0 0.0 0.0 0.09 0.09 0.09 1014.9
20260508131515 0 0.0 0.0 0.09 0.09 0.09 1014.7
20260508130012 0 0.0 0.0 0.09 0.09 0.09 1014.7
20260508124508 56 274 9.0 17.0 0.09 0.09 0.09 61 1014.4
20260508123007 53 258 5.0 8.0 0.00 0.00 0.00 64 1014.5
20260508121506 52 245 2.0 4.0 0.00 0.00 0.00 64 1014.6
20260508120003 52 259 0.0 3.0 0.00 0.00 0.00 63 1014.6
20260508114600 53 274 2.0 4.0 0.00 0.00 0.00 61 1014.7
20260508113058 54 284 3.0 7.0 0.00 0.00 0.00 59 1014.6
20260508111603 55 285 4.0 10.0 0.00 0.00 0.00 57 1014.6
20260508104557 54 270 6.0 10.0 0.00 0.00 0.00 57 1014.7
20260508103055 54 252 6.0 8.0 0.00 0.00 0.00 57 1014.6
20260508101553 55 267 6.0 11.0 0.00 0.00 0.00 55 1014.5
20260508100048 56 269 8.0 13.0 0.00 0.00 0.00 54 1014.4
20260508094549 56 274 9.0 14.0 0.00 0.00 0.00 54 1014.4
20260508093048 56 248 12.0 17.0 0.00 0.00 0.00 54 1014.1
20260508091554 56 269 12.0 19.0 0.00 0.00 0.00 54 1014.1
20260508090042 56 255 13.0 18.0 0.00 0.00 0.00 55 1014.0
20260508084540 55 259 11.0 16.0 0.00 0.00 0.00 56 1014.0
20260508083047 55 275 9.0 13.0 0.00 0.00 0.00 55 1014.0
20260508081533 55 268 6.0 11.0 0.00 0.00 0.00 53 1014.1
20260508080053 57 276 8.0 13.0 0.00 0.00 0.00 51 1014.1
20260508074529 56 262 6.0 10.0 0.00 0.00 0.00 50 1014.2
20260508073028 56 249 6.0 12.0 0.00 0.00 0.00 50 1014.2
20260508071527 56 263 4.0 10.0 0.00 0.00 0.00 50 1014.2
20260508070024 56 269 5.0 11.0 0.00 0.00 0.00 50 1014.3
20260508064538 56 237 6.0 9.0 0.00 0.00 0.00 49 1014.2
20260508063021 57 240 8.0 13.0 0.00 0.00 0.00 42 1014.0
20260508061523 55 250 6.0 9.0 0.00 0.00 0.00 47 1014.0
20260508060021 55 274 4.0 6.0 0.00 0.00 0.00 50 1013.9
20260508054535 56 281 5.0 8.0 0.00 0.00 0.00 53 1013.9
20260508053020 56 281 3.0 7.0 0.00 0.00 0.00 58 1013.8
20260508051518 57 284 2.0 6.0 0.00 0.00 0.00 57 1013.9
20260508050018 56 281 3.0 7.0 0.00 0.00 0.00 58 1013.7
20260508044518 57 289 4.0 8.0 0.00 0.00 0.00 58 1013.5
20260508043017 57 285 4.0 8.0 0.00 0.00 0.00 57 1013.5
20260508041516 58 288 4.0 6.0 0.00 0.00 0.00 55 1013.4
20260508040034 59 274 3.0 4.0 0.00 0.00 0.00 51 1013.3
20260508034519 63 289 6.0 9.0 0.00 0.00 0.00 45 1013.2
20260508033017 63 281 4.0 7.0 0.00 0.00 0.00 45 1013.0
20260508031517 64 297 2.0 7.0 0.00 0.00 0.00 45 1013.0
20260508030014 66 294 6.0 12.0 0.00 0.00 0.00 44 1012.7
20260508024521 67 285 5.0 10.0 0.00 0.00 0.00 43 1012.5
20260508023012 68 297 4.0 8.0 0.00 0.00 0.00 41 1012.4
20260508021513 69 290 7.0 14.0 0.00 0.00 0.00 41 1012.4
20260508020013 70 295 8.0 14.0 0.00 0.00 0.00 39 1012.4
20260508014510 70 295 8.0 17.0 0.00 0.00 0.00 38 1012.5
20260508013011 71 300 8.0 16.0 0.00 0.00 0.00 36 1012.4
20260508011509 71 297 11.0 16.0 0.00 0.00 0.00 32 1012.5
20260508010010 73 289 9.0 15.0 0.00 0.00 0.00 29 1012.5
20260508004507 73 283 12.0 16.0 0.00 0.00 0.00 27 1012.6
20260508003006 74 275 10.0 17.0 0.00 0.00 0.00 27 1012.5
20260508001506 74 305 12.0 19.0 0.00 0.00 0.00 27 1012.5